Location: Joplin, MO
(37.0842°N, 94.5133°W)
Time: 16:47:53
(UTC+02:00)

Explorer 11/Cluster Stage 4 - Visible Passes

Search period start: 30 March 2023 00:00
Search period end: 09 April 2023 00:00
Orbit: 466 x 1241 km, 28.8° (Epoch: 29 March)

Date Brightness Start Highest point End Pass type
(mag) Time Alt. Az. Time Alt. Az. Time Alt. Az.
30 Mar 8.1 12:23:36 11° SSE 12:23:49 11° SSE 12:25:05 10° SE visible
31 Mar 8.1 12:10:46 12° SSE 12:10:46 12° SSE 12:11:45 10° SE visible
01 Apr 8.2 11:57:55 11° SE 11:57:55 11° SE 11:58:22 10° SE visible
02 Apr 7.2 13:27:19 10° SW 13:30:15 23° S 13:33:22 10° SE visible
03 Apr 7.1 13:14:05 12° SW 13:16:36 22° S 13:19:37 10° SE visible
04 Apr 7.1 13:01:11 16° SW 13:02:58 22° S 13:05:51 10° SE visible
05 Apr 7.0 12:48:17 19° SSW 12:49:18 21° S 12:52:08 10° SE visible
06 Apr 7.0 12:35:25 21° SSW 12:35:38 21° S 12:38:25 10° SE visible
07 Apr 7.3 12:22:34 20° S 12:22:34 20° S 12:24:43 10° SE visible
08 Apr 7.7 12:09:46 16° SSE 12:09:46 16° SSE 12:11:01 10° SE visible
